| time (UTC) | temp F | wind direction | speed MPH | gust MPH | rain 1hr in | rain 24hr in | rain mn in | humidity % | barometer mb |
| 20260503214858 | 81 | 235 | 0.0 | 0.0 | 0.00 | 0.00 | 0.00 | 37 | 979.0 |
| 20260503212735 | 82 | 272 | 0.0 | 1.0 | 0.00 | 0.00 | 0.00 | 38 | 979.5 |
| 20260503211738 | 81 | 275 | 0.0 | 3.0 | 0.00 | 0.00 | 0.00 | 37 | 979.5 |
| 20260503210723 | 81 | 202 | 0.0 | 2.0 | 0.00 | 0.00 | 0.00 | 35 | 979.6 |
| 20260503205742 | 82 | 263 | 0.0 | 4.0 | 0.00 | 0.00 | 0.00 | 35 | 979.9 |
| 20260503204741 | 82 | 253 | 0.0 | 3.0 | 0.00 | 0.00 | 0.00 | 38 | 980.1 |
| 20260503203805 | 82 | 144 | 0.0 | 4.0 | 0.00 | 0.00 | 0.00 | 37 | 980.1 |
| 20260503201611 | 82 | 296 | 0.0 | 1.0 | 0.00 | 0.00 | 0.00 | 35 | 980.7 |
| 20260503195420 | 82 | 254 | 0.0 | 2.0 | 0.00 | 0.00 | 0.00 | 33 | 980.9 |
| 20260503194437 | 82 | 263 | 0.0 | 1.0 | 0.00 | 0.00 | 0.00 | 36 | 981.0 |
| 20260503193448 | 82 | 250 | 0.0 | 3.0 | 0.00 | 0.00 | 0.00 | 34 | 981.0 |
| 20260503192415 | 82 | 261 | 0.0 | 1.0 | 0.00 | 0.00 | 0.00 | 36 | 981.2 |
| 20260503191440 | 82 | 252 | 0.0 | 4.0 | 0.00 | 0.00 | 0.00 | 35 | 981.2 |
| 20260503185315 | 82 | 252 | 0.0 | 0.0 | 0.00 | 0.00 | 0.00 | 37 | 981.6 |
| 20260503184333 | 81 | 252 | 0.0 | 3.0 | 0.00 | 0.00 | 0.00 | 35 | 981.8 |
| 20260503182216 | 81 | 245 | 0.0 | 2.0 | 0.00 | 0.00 | 0.00 | 37 | 982.1 |
| 20260503181238 | 81 | 244 | 0.0 | 3.0 | 0.00 | 0.00 | 0.00 | 34 | 982.3 |
| 20260503180244 | 80 | 249 | 0.0 | 0.0 | 0.00 | 0.00 | 0.00 | 40 | 982.5 |
| 20260503175247 | 80 | 249 | 0.0 | 0.0 | 0.00 | 0.00 | 0.00 | 40 | 982.8 |
| 20260503174304 | 79 | 239 | 0.0 | 0.0 | 0.00 | 0.00 | 0.00 | 40 | 982.9 |
| 20260503173302 | 79 | 196 | 0.0 | 0.0 | 0.00 | 0.00 | 0.00 | 39 | 982.9 |
| 20260503172235 | 78 | 263 | 0.0 | 0.0 | 0.00 | 0.00 | 0.00 | 38 | 983.0 |
| 20260503171235 | 78 | 263 | 0.0 | 2.0 | 0.00 | 0.00 | 0.00 | 42 | 983.2 |
| 20260503170240 | 78 | 242 | 0.0 | 0.0 | 0.00 | 0.00 | 0.00 | 43 | 983.4 |
| 20260503151004 | 72 | 140 | 0.0 | 0.0 | 0.00 | 0.00 | 0.00 | 56 | 984.1 |
| 20260503090318 | 52 | 138 | 0.0 | 0.0 | 0.00 | 0.00 | 0.00 | 1 | 981.9 |
| 20260503081320 | 53 | 138 | 0.0 | 0.0 | 0.00 | 0.00 | 0.00 | 1 | 982.0 |
| 20260503080251 | 53 | 138 | 0.0 | 0.0 | 0.00 | 0.00 | 0.00 | 1 | 982.1 |
| 20260503072308 | 54 | 138 | 0.0 | 0.0 | 0.00 | 0.00 | 0.00 | 1 | 982.2 |
| 20260503071246 | 54 | 138 | 0.0 | 0.0 | 0.00 | 0.00 | 0.00 | 2 | 982.3 |
| 20260503054701 | 54 | 138 | 0.0 | 0.0 | 0.00 | 0.00 | 0.00 | 30 | 982.5 |
| 20260503053714 | 54 | 138 | 0.0 | 0.0 | 0.00 | 0.00 | 0.00 | 38 | 982.6 |
| 20260503052718 | 55 | 138 | 0.0 | 0.0 | 0.00 | 0.00 | 0.00 | 41 | 982.6 |
| 20260503051656 | 55 | 138 | 0.0 | 0.0 | 0.00 | 0.00 | 0.00 | 40 | 982.7 |
| 20260503050646 | 55 | 138 | 0.0 | 0.0 | 0.00 | 0.00 | 0.00 | 35 | 982.7 |
| 20260503045702 | 55 | 138 | 0.0 | 0.0 | 0.00 | 0.00 | 0.00 | 41 | 982.6 |
| 20260503043513 | 56 | 138 | 0.0 | 0.0 | 0.00 | 0.00 | 0.00 | 44 | 982.6 |
| 20260503042502 | 56 | 138 | 0.0 | 0.0 | 0.00 | 0.00 | 0.00 | 45 | 982.5 |
| 20260503041505 | 56 | 138 | 0.0 | 0.0 | 0.00 | 0.00 | 0.00 | 49 | 982.5 |
| 20260503040503 | 56 | 138 | 0.0 | 0.0 | 0.00 | 0.00 | 0.00 | 52 | 982.4 |
| 20260503035501 | 56 | 138 | 0.0 | 0.0 | 0.00 | 0.00 | 0.00 | 51 | 982.3 |
| 20260503034455 | 56 | 138 | 0.0 | 0.0 | 0.00 | 0.00 | 0.00 | 55 | 982.5 |
| 20260503033448 | 56 | 138 | 0.0 | 0.0 | 0.00 | 0.00 | 0.00 | 57 | 982.2 |
| 20260503032434 | 57 | 138 | 0.0 | 0.0 | 0.00 | 0.00 | 0.00 | 58 | 982.1 |
| 20260503031405 | 57 | 138 | 0.0 | 0.0 | 0.00 | 0.00 | 0.00 | 59 | 982.1 |
| 20260503030351 | 57 | 138 | 0.0 | 0.0 | 0.00 | 0.00 | 0.00 | 62 | 982.1 |
| 20260503024220 | 58 | 138 | 0.0 | 0.0 | 0.00 | 0.00 | 0.00 | 62 | 981.9 |
| 20260503023236 | 58 | 138 | 0.0 | 0.0 | 0.00 | 0.00 | 0.00 | 62 | 981.7 |
| 20260503022204 | 59 | 138 | 0.0 | 0.0 | 0.00 | 0.00 | 0.00 | 63 | 981.3 |
| 20260503021133 | 59 | 138 | 0.0 | 0.0 | 0.00 | 0.00 | 0.00 | 64 | 981.3 |
| 20260503020131 | 60 | 138 | 0.0 | 0.0 | 0.00 | 0.00 | 0.00 | 65 | 981.3 |
| 20260503013956 | 62 | 138 | 0.0 | 0.0 | 0.00 | 0.00 | 0.00 | 66 | 981.1 |
| 20260503011838 | 64 | 138 | 0.0 | 0.0 | 0.00 | 0.00 | 0.00 | 63 | 981.1 |
| 20260503005642 | 67 | 138 | 0.0 | 0.0 | 0.00 | 0.00 | 0.00 | 57 | 980.8 |
| 20260503004630 | 68 | 138 | 0.0 | 0.0 | 0.00 | 0.00 | 0.00 | 56 | 980.9 |
| 20260503003636 | 69 | 138 | 0.0 | 0.0 | 0.00 | 0.00 | 0.00 | 53 | 980.7 |
| 20260503002605 | 70 | 138 | 0.0 | 0.0 | 0.00 | 0.00 | 0.00 | 50 | 980.7 |
| 20260503001630 | 71 | 138 | 0.0 | 0.0 | 0.00 | 0.00 | 0.00 | 52 | 980.7 |
| 20260503000648 | 71 | 138 | 0.0 | 0.0 | 0.00 | 0.00 | 0.00 | 49 | 980.7 |
| 20260502235706 | 72 | 138 | 0.0 | 0.0 | 0.00 | 0.00 | 0.00 | 46 | 980.6 |
| 20260502234724 | 73 | 138 | 0.0 | 0.0 | 0.00 | 0.00 | 0.00 | 46 | 980.6 |
| 20260502233656 | 73 | 138 | 0.0 | 0.0 | 0.00 | 0.00 | 0.00 | 46 | 980.5 |
| 20260502230346 | 77 | 138 | 0.0 | 0.0 | 0.00 | 0.00 | 0.00 | 42 | 980.5 |
| 20260502225328 | 77 | 138 | 0.0 | 0.0 | 0.00 | 0.00 | 0.00 | 42 | 980.5 |
| 20260502224335 | 77 | 140 | 0.0 | 0.0 | 0.00 | 0.00 | 0.00 | 42 | 980.4 |
| 20260502223320 | 77 | 140 | 0.0 | 0.0 | 0.00 | 0.00 | 0.00 | 43 | 980.5 |
| 20260502222324 | 76 | 140 | 0.0 | 0.0 | 0.00 | 0.00 | 0.00 | 46 | 980.6 |
| 20260502221250 | 76 | 140 | 0.0 | 0.0 | 0.00 | 0.00 | 0.00 | 41 | 980.6 |
| 20260502220219 | 77 | 119 | 0.0 | 1.0 | 0.00 | 0.00 | 0.00 | 39 | 980.7 |
| 20260502215155 | 77 | 115 | 0.0 | 1.0 | 0.00 | 0.00 | 0.00 | 39 | 980.7 |